Theta_e
316 319 320 320 319 318 320 320 317 321 321 319 319 319 318 318 319 320 328 332 334 335 335 334 336 338 340 340 340 340 338 337 335 335 337 338 337 337 337 337 336 335 334 330 324 321 315 312 312
314 319 320 316 318 319 315 318 319 318 318 318 318 319 319 320 321 322 326 328 335 335 336 334 335 337 340 340 339 339 338 338 339 338 337 337 335 335 335 335 335 334 332 327 324 318 312 307 304
320 320 316 318 315 316 316 316 317 317 317 318 319 319 319 320 320 323 328 328 334 335 336 333 335 337 338 340 338 337 337 338 338 338 337 336 334 333 333 332 332 332 331 327 322 315 307 302 302
320 317 312 314 319 317 316 316 317 318 318 318 318 318 317 320 320 324 326 327 333 334 337 334 336 338 340 340 339 338 336 336 337 338 337 335 333 331 331 330 331 331 329 325 321 313 303 302 301
319 312 314 317 317 316 317 318 318 319 318 318 318 318 316 319 322 323 325 325 331 333 338 337 335 338 339 338 338 337 336 335 335 337 336 334 332 331 329 329 330 329 326 323 319 309 302 302 301
315 311 315 317 315 316 316 317 318 318 318 317 317 317 317 318 318 321 325 325 330 332 337 338 337 336 340 339 338 338 334 331 334 336 335 333 331 330 329 329 327 326 323 322 317 308 302 302 301
318 315 317 318 317 316 318 316 317 315 313 316 317 317 315 316 318 319 324 326 329 331 334 337 338 338 336 338 338 337 334 331 336 337 335 333 330 328 328 328 326 324 321 320 311 304 302 302 300
315 314 318 316 316 317 316 316 316 316 315 316 316 314 317 316 318 318 321 325 327 329 331 333 335 337 336 336 336 336 334 332 336 336 334 332 330 328 327 326 324 323 321 321 317 307 303 301 300
316 314 315 317 315 314 314 315 314 315 315 314 315 314 314 317 317 318 320 322 326 328 330 331 333 334 335 335 336 336 335 333 336 336 332 332 328 327 326 325 322 321 320 320 317 311 304 301 299
315 315 316 315 314 314 313 313 311 313 310 311 312 312 315 317 316 317 319 320 322 326 328 330 331 332 333 334 336 336 335 335 337 335 332 331 326 326 324 324 321 318 319 318 316 312 303 299 298
317 316 316 316 316 315 315 313 311 312 312 311 312 312 312 314 314 315 316 318 319 320 322 328 331 331 334 334 334 336 336 336 336 333 332 330 327 324 324 324 320 317 318 316 314 309 301 299 300
316 315 316 316 315 315 315 315 314 313 313 311 310 311 312 310 309 313 314 315 317 318 321 323 327 330 332 334 334 334 334 336 335 333 332 330 327 324 324 323 320 316 316 315 311 306 302 299 300
314 314 315 313 313 312 313 313 313 313 312 310 310 310 309 309 310 313 314 315 315 316 317 321 325 327 329 332 334 334 335 334 334 333 332 330 328 324 323 323 320 318 315 314 311 306 302 298 299
312 313 312 312 312 312 313 312 314 312 310 310 310 309 308 308 310 312 313 314 315 316 316 317 323 325 327 330 332 333 332 333 333 332 331 330 328 325 322 322 319 317 315 313 311 307 302 298 299
313 313 311 311 311 312 311 313 313 311 310 311 310 308 309 309 308 308 308 308 311 312 315 316 318 324 325 327 329 331 331 330 329 329 329 327 326 325 322 321 318 317 315 313 311 308 305 300 299
313 312 312 312 313 312 311 312 311 310 311 312 310 308 308 307 307 307 308 308 310 311 313 315 316 321 324 325 326 328 329 328 328 327 327 327 326 324 324 322 319 316 314 314 312 308 306 300 298
311 311 312 313 313 312 311 311 311 310 310 310 309 309 307 307 306 305 305 304 305 308 310 314 315 317 322 324 324 325 326 326 325 325 325 325 326 326 324 322 319 314 314 313 312 309 304 300 298
312 311 311 313 314 313 312 310 310 310 311 309 307 308 307 306 305 304 303 303 303 304 306 308 311 314 316 319 321 321 323 323 323 323 323 322 323 323 323 320 316 314 312 312 310 308 303 299 298
310 312 312 312 313 313 313 312 311 311 310 309 309 307 306 304 303 302 302 301 301 301 303 304 305 306 309 312 312 314 316 318 319 320 320 320 319 319 319 319 317 312 311 310 309 307 302 299 298
312 313 313 312 313 314 312 311 312 312 311 310 306 305 305 304 301 300 299 300 300 299 300 301 302 303 304 306 308 310 311 311 312 314 316 317 317 316 316 316 316 313 310 308 307 305 301 299 298
314 314 313 314 313 311 312 312 312 311 307 306 305 304 303 302 301 299 298 297 298 298 297 298 299 299 301 303 304 305 305 305 305 305 306 306 309 313 314 313 313 313 310 307 306 303 301 298 297
315 313 313 313 311 315 312 315 312 311 307 305 304 302 301 300 299 299 298 297 296 296 296 296 295 296 298 299 299 299 298 299 299 300 302 303 304 308 308 309 311 310 310 307 305 303 301 298 297
314 311 311 311 311 312 312 313 312 308 308 306 303 302 301 300 299 298 296 296 296 296 296 296 296 295 295 296 296 296 296 296 297 297 298 299 300 302 305 307 306 307 307 307 305 302 300 299 297
309 311 311 310 310 315 314 313 313 310 309 306 304 302 302 300 299 298 297 296 296 296 295 295 295 294 294 294 294 294 294 295 295 295 295 295 296 297 298 300 303 304 304 305 305 303 300 299 298
309 310 315 317 315 318 314 314 313 309 307 306 304 302 300 298 296 295 296 296 295 294 294 294 294 293 292 292 293 293 293 292 292 292 292 292 292 294 295 295 296 297 300 302 302 303 302 300 297
310 313 318 316 319 317 313 315 315 307 305 303 301 299 297 295 294 293 293 294 294 293 293 292 292 291 289 289 289 290 290 290 289 289 288 288 288 288 290 294 295 294 295 296 299 300 300 300 299
314 314 313 315 301 309 312 313 310 307 304 302 300 298 296 294 293 292 292 292 292 291 291 291 290 290 289 288 288 288 289 288 287 287 286 286 286 286 287 287 289 293 294 293 294 295 297 298 298
312 310 314 311 310 308 312 311 309 309 305 302 300 297 295 294 291 290 290 291 290 290 289 289 289 289 288 288 287 287 287 288 287 287 286 285 285 285 285 285 286 286 289 293 292 293 294 295 296
310 310 310 311 312 313 311 310 308 308 303 301 300 299 295 294 290 289 290 290 290 289 289 289 288 288 288 288 287 287 286 286 286 287 286 285 285 284 284 284 284 285 285 286 290 292 292 292 293
308 309 309 312 314 313 315 315 305 302 300 300 299 298 295 294 290 288 290 290 290 289 289 289 289 288 288 288 287 287 287 287 286 286 285 285 285 284 284 283 283 284 284 284 284 287 290 291 291
Wind_Speed
7 6 9 4 4 5 4 2 3 5 3 0 0 3 3 3 3 3 7 16 12 19 24 25 25 25 23 22 20 18 16 14 13 14 14 12 9 9 9 6 5 4 2 1 1 2 3 2 1
7 6 1 2 4 3 4 1 3 4 4 1 2 0 1 1 3 4 8 16 12 20 22 26 25 25 24 22 21 19 18 16 14 14 13 12 8 8 8 6 4 3 2 2 1 3 3 2 1
7 5 3 3 3 3 2 2 2 1 4 2 2 1 2 3 3 11 5 16 16 20 19 26 25 24 24 22 21 20 19 17 15 15 15 11 9 7 8 7 5 4 4 1 1 3 2 1 2
5 5 4 3 3 2 2 1 2 3 2 2 2 4 3 1 7 8 11 14 18 19 19 24 25 24 23 22 21 20 20 19 18 17 16 14 10 8 8 7 6 6 5 3 2 2 1 2 4
3 3 3 2 5 2 3 3 3 1 3 2 3 4 5 2 10 11 12 12 19 18 17 17 25 25 23 23 21 20 20 20 19 19 17 14 9 10 9 10 9 8 6 5 4 4 2 3 4
4 3 3 1 5 3 3 5 2 2 2 3 2 1 2 5 6 9 10 11 16 19 17 17 20 25 24 23 22 20 20 20 20 20 19 14 11 10 10 9 9 9 7 7 6 5 4 4 5
2 3 3 3 5 5 2 2 3 1 4 3 2 1 2 1 4 7 8 9 15 17 19 18 20 22 25 26 24 23 21 20 20 21 19 15 13 12 12 11 10 9 9 9 8 7 6 5 6
3 3 3 4 3 5 5 3 4 3 5 2 2 2 3 6 10 8 9 10 12 16 19 20 20 22 25 27 24 23 22 21 23 21 20 17 14 13 13 13 13 11 10 10 9 8 7 6 7
3 4 2 4 6 6 5 5 5 2 2 1 3 5 5 11 11 9 8 10 13 16 20 23 22 21 25 27 24 24 23 23 23 23 20 19 14 13 13 14 13 12 12 11 10 8 8 6 6
4 3 6 3 1 3 3 2 4 4 8 5 5 5 2 13 12 11 11 13 16 18 20 24 24 22 20 29 28 27 25 25 26 26 26 22 16 15 14 15 15 14 15 14 11 10 9 7 7
5 5 4 6 4 1 4 8 6 5 8 6 8 6 3 13 12 13 16 17 19 18 22 25 26 23 22 24 27 27 28 28 29 28 26 22 18 17 18 17 17 17 19 17 13 13 11 10 9
3 8 7 5 3 4 5 2 7 6 15 8 10 9 5 8 8 17 20 20 20 20 25 25 27 26 26 24 25 24 26 29 30 29 27 25 23 21 21 21 20 21 22 20 19 16 13 12 11
5 4 3 7 9 7 5 5 7 10 17 12 11 10 10 8 12 14 20 18 18 23 20 25 27 28 28 29 28 26 28 29 31 31 30 29 27 26 23 25 24 22 22 22 21 18 17 16 14
4 4 6 7 12 6 7 4 0 9 6 10 8 8 8 8 12 14 17 20 18 20 21 16 26 27 25 28 28 27 22 24 25 27 28 27 28 29 26 28 27 25 25 24 24 22 19 18 16
3 5 8 10 7 7 7 5 8 12 6 10 7 7 9 10 24 20 25 30 12 8 11 13 13 25 26 25 26 27 24 22 22 25 25 25 26 28 26 28 27 26 25 24 24 23 22 21 20
4 1 4 6 3 3 3 8 8 10 5 14 8 8 8 13 18 24 28 29 28 27 17 4 6 13 22 22 21 21 22 19 21 21 22 22 23 26 27 30 27 26 25 25 25 25 24 23 22
2 4 5 7 2 3 3 6 10 9 6 11 6 7 11 12 21 28 30 31 32 30 26 18 8 4 9 14 14 16 15 17 15 17 17 17 20 25 27 27 25 25 26 27 27 26 26 25 23
6 3 4 3 5 1 5 10 9 12 11 8 7 6 13 14 14 24 31 33 34 33 32 30 23 16 8 4 5 5 9 12 13 11 15 15 19 22 26 26 25 26 29 29 28 28 26 26 22
3 4 5 5 8 6 9 7 9 15 10 6 8 17 12 15 18 27 29 33 36 38 34 32 29 25 17 11 8 5 5 4 7 10 12 13 15 19 22 26 27 27 30 32 31 30 28 28 22
7 6 6 5 5 3 8 9 16 16 6 1 17 12 11 11 16 23 26 31 35 33 36 34 30 27 24 21 16 9 8 9 8 6 7 12 16 16 20 24 27 28 29 30 32 32 31 30 27
4 4 4 6 4 5 5 6 7 7 15 18 15 15 14 13 14 13 21 26 30 33 32 34 33 32 27 21 16 14 13 13 15 15 12 11 11 15 18 20 24 28 28 30 33 33 34 29 32
4 7 5 4 2 3 3 4 8 3 13 12 11 12 12 12 13 14 17 22 26 28 29 31 32 32 31 29 27 25 22 17 16 16 14 11 11 12 15 18 20 24 29 31 32 34 36 34 30
6 2 3 2 2 2 5 2 7 8 6 6 7 10 11 11 11 11 16 20 25 26 27 27 28 30 29 28 28 27 26 22 20 21 19 16 13 12 12 16 19 21 26 31 31 32 35 38 35
4 2 3 2 3 1 6 6 5 3 8 7 7 10 10 9 8 12 18 22 25 25 26 26 26 27 25 25 26 26 26 25 27 28 28 27 23 17 12 13 16 22 24 27 31 32 34 37 43
4 5 3 3 1 5 3 2 6 6 7 15 14 12 10 8 8 8 12 18 20 22 21 21 22 25 24 25 25 25 23 23 23 24 25 26 28 28 24 20 19 18 21 28 28 31 33 35 40
6 6 4 5 3 5 7 4 3 10 16 15 13 11 8 8 7 7 12 15 15 17 17 18 18 19 21 22 21 20 21 22 21 22 23 24 25 26 24 24 22 21 21 22 27 31 31 34 38
4 4 2 2 2 3 4 2 6 10 11 10 10 9 7 7 7 7 12 12 11 11 11 12 12 9 12 13 12 13 12 13 16 18 20 22 24 26 26 26 25 23 21 21 22 26 31 34 36
1 2 1 2 1 3 3 3 4 8 9 8 7 7 6 6 7 6 8 9 9 9 10 11 10 10 10 15 16 15 11 13 16 14 16 18 21 24 27 28 27 27 25 23 22 24 27 30 33
2 0 2 3 4 4 2 5 1 12 9 8 7 7 7 6 6 5 6 6 5 5 7 8 10 12 13 16 19 21 21 22 20 20 21 21 22 22 23 25 27 28 27 26 25 24 25 28 31
5 4 5 3 4 3 0 9 8 12 10 7 7 7 7 6 7 7 7 4 2 6 10 12 14 15 18 21 23 26 27 27 26 25 28 29 29 27 25 24 25 26 27 28 27 27 26 28 31
Wind_Direction
330 334 325 349 52 64 296 285 82 32 48 109 329 98 213 215 206 211 146 167 178 178 179 180 179 175 173 171 172 169 168 166 164 161 158 152 158 168 145 145 153 153 150 279 39 10 356 4 42
344 356 19 72 87 72 280 102 126 156 167 243 256 170 327 38 115 143 149 184 190 181 182 183 183 181 179 177 177 176 174 172 171 166 165 163 185 194 191 177 191 195 219 202 323 329 341 356 53
344 329 74 103 122 151 184 18 127 165 151 116 3 10 217 157 115 157 180 169 178 185 187 188 185 184 185 185 184 183 182 179 178 175 168 176 189 201 205 196 187 176 166 193 293 319 333 28 99
341 15 17 85 232 260 118 16 46 27 41 74 120 302 304 105 149 160 159 167 172 190 187 193 189 187 188 189 187 187 188 187 184 183 181 186 195 202 195 193 187 181 185 185 235 257 308 130 120
326 65 34 348 280 181 101 105 73 349 298 174 147 288 302 28 124 137 157 165 173 187 194 196 196 192 194 194 195 194 192 191 191 193 195 187 196 207 194 191 184 186 190 181 210 227 197 143 124
8 90 35 287 295 289 117 126 68 332 306 194 160 360 273 133 136 140 157 163 175 185 193 199 199 201 197 201 199 198 201 198 197 199 198 191 204 207 200 196 197 201 194 187 199 208 187 160 142
105 71 232 294 287 328 145 85 82 356 8 341 279 317 4 60 135 148 155 164 177 190 202 205 203 206 208 204 205 208 209 206 201 198 199 205 205 207 205 206 205 204 198 197 209 212 192 172 155
96 92 302 279 294 273 191 122 146 112 258 248 113 272 284 197 173 168 163 178 186 194 208 209 210 213 213 212 212 215 215 213 208 205 202 204 214 214 214 216 212 204 196 196 201 202 194 180 170
58 58 264 261 8 307 1 15 1 331 239 239 224 209 243 168 171 174 176 191 195 205 206 214 214 220 219 210 211 218 217 212 210 202 208 214 215 221 221 226 224 213 202 200 201 201 203 185 174
103 132 232 164 166 310 284 84 296 6 308 287 290 289 267 181 194 194 206 207 205 211 214 213 219 223 218 212 213 216 215 211 207 211 220 225 219 223 225 235 233 220 215 212 203 202 205 191 179
189 200 224 296 340 352 316 331 339 350 282 232 260 269 226 206 220 222 230 228 221 229 225 217 217 220 216 216 220 219 217 215 213 219 225 228 221 224 230 236 227 217 219 220 214 216 207 203 204
211 229 233 267 320 314 298 295 307 238 256 260 272 266 275 279 234 237 239 240 236 233 232 225 219 216 214 216 218 221 219 216 218 224 228 230 226 226 231 233 230 222 224 226 225 222 212 212 216
213 240 312 317 294 264 281 252 252 261 265 277 281 292 291 278 276 271 241 248 248 239 237 227 222 219 216 212 215 218 222 220 223 229 232 232 230 227 227 233 230 229 229 231 230 229 224 219 220
299 330 289 279 267 260 249 264 13 274 310 308 307 308 325 309 290 291 267 250 238 241 236 230 219 222 218 216 217 221 222 223 226 232 235 235 233 226 228 227 225 230 232 233 232 229 226 226 225
324 328 310 261 268 225 164 307 230 256 299 300 301 326 325 318 50 42 50 51 42 9 266 226 223 217 216 218 219 222 225 225 224 232 237 243 237 232 232 227 229 238 238 234 232 228 226 225 223
312 348 301 285 155 306 80 261 264 266 318 297 329 324 315 59 46 44 52 58 59 60 58 222 218 213 214 215 220 223 227 231 235 236 232 233 234 234 229 230 239 242 238 235 233 232 232 230 226
276 233 213 307 346 122 178 250 265 284 280 279 314 298 72 65 46 35 33 45 54 59 66 76 87 108 204 212 219 227 230 235 240 241 238 232 229 226 230 237 244 237 230 232 238 237 235 232 227
226 216 276 253 271 276 228 247 271 287 275 253 293 33 83 70 52 50 44 42 49 53 60 65 69 67 78 121 200 206 228 240 247 250 245 244 243 238 237 239 238 235 232 233 235 240 237 237 235
266 270 259 266 281 299 280 288 285 264 287 314 316 113 90 71 62 50 44 45 46 49 53 52 57 56 59 54 40 12 0 332 280 274 263 260 256 249 245 248 244 235 233 237 237 237 234 233 230
227 244 264 277 280 326 287 297 277 288 280 93 112 78 76 75 60 47 44 45 47 45 47 55 54 51 53 59 52 48 40 48 28 347 294 279 276 268 260 251 248 246 241 237 235 233 228 229 219
279 240 238 254 297 279 304 301 291 52 76 78 74 85 73 69 69 59 51 47 51 52 50 53 55 53 53 52 53 55 55 50 34 25 11 346 303 281 273 266 253 249 250 246 240 236 234 229 218
254 248 222 245 82 236 60 277 290 55 84 72 79 78 82 74 66 60 51 48 48 49 50 50 51 52 51 51 55 55 49 36 11 7 358 352 360 294 283 278 269 258 254 251 249 245 240 232 223
228 100 166 195 194 46 287 109 268 119 87 98 87 84 77 76 74 66 55 52 50 47 44 44 45 44 43 44 42 43 42 38 32 22 11 1 351 349 310 281 283 275 261 255 255 247 241 239 234
146 34 311 95 118 72 267 168 287 162 172 125 100 91 84 75 73 69 62 51 44 38 35 35 35 37 35 38 38 34 32 27 24 18 15 7 2 354 339 335 297 279 279 268 259 256 252 245 242
85 75 315 351 18 222 189 56 246 10 86 125 120 101 91 84 65 55 48 52 47 41 36 40 33 30 27 29 30 27 23 25 25 19 10 3 357 356 354 336 323 311 291 277 273 265 259 253 246
171 173 170 222 212 230 10 253 323 104 95 99 98 104 95 80 81 71 63 57 53 44 40 37 39 32 29 27 24 20 17 13 16 15 9 0 355 350 347 344 338 317 302 292 280 271 268 266 261
177 173 190 169 51 60 209 266 105 109 104 110 107 98 100 99 90 87 80 76 72 63 55 48 45 43 33 33 34 26 7 359 5 9 360 351 347 345 342 344 341 336 324 303 296 288 278 271 269
107 152 47 14 296 257 262 238 216 163 142 125 116 121 125 125 112 107 96 88 76 60 47 37 33 29 20 11 9 6 355 349 356 356 351 342 336 336 336 335 335 333 329 324 311 297 293 285 277
38 200 194 167 167 196 254 249 196 143 149 142 168 175 160 143 140 130 114 100 80 54 29 19 16 13 6 1 353 350 351 348 341 332 332 329 327 327 323 323 323 325 326 325 320 309 299 289 285
181 213 171 170 238 242 229 252 152 144 153 165 193 168 159 154 160 165 167 145 8 344 344 341 341 344 347 346 343 341 339 337 332 325 322 323 319 318 312 310 308 311 314 318 318 314 308 296 289